Regional Weather Roundup
Issued by NWS

Home | Current Version | Previous Version | Graphics & Text | Print | Product List | Glossary On
Versions: 1 2 3 4 5 6 7 8 9 10 11 12 13 14 15 16 17 18 19 20 21 22 23 24 25 26 27 28 29 30 31 32 33 34 35 36 37 38 39 40 41 42 43 44 45 46 47 48 49 50
000
ASUS43 KIND 220709
RWRIN

WEATHER ROUNDUP FOR INDIANA
NATIONAL WEATHER SERVICE INDIANAPOLIS IN
300 AM EDT TUE JUL 22 2014

NOTE: "FAIR" INDICATES FEW OR NO CLOUDS BELOW 12,000 FEET WITH NO
SIGNIFICANT WEATHER AND/OR OBSTRUCTIONS TO VISIBILITY.

* - STATION DOES NOT REPORT WEATHER SUCH AS PRECIPITATION OR FOG.

+ - STATION NOT QUALITY CONTROLLED BY THE NATIONAL WEATHER SERVICE.
    USE DATA WITH CAUTION...ESPECIALLY DEWPOINT AND RELATIVE
    HUMIDITY OBSERVATIONS.

INZ001>003-010>013-019-020-220800-
NORTHWEST INDIANA

CITY           SKY/WX    TMP DP  RH WIND       PRES   REMARKS
GARY /AIRPORT/ CLEAR     67  64  92 CALM      30.07S
KNOX *+        CLEAR     62  60  92 CALM      30.08S
LA PORTE +     CLEAR     63  63 100 CALM      30.09S FOG
MICHIGAN CITY+ CLEAR     64  63  94 CALM      30.08S FOG
MONTICELLO +   FOG       66  65  99 CALM      30.07S VSB 1/2
RENSSELAER +   CLEAR     61  61 100 CALM      30.08F FOG
VALPARAISO     CLEAR     67  63  87 CALM      30.09R

$$

LMZ046-743>745-220800-
SOUTHERN LAKE MICHIGAN

STATION/POSITION TIME  TEMP WIND        PRES
                       AIR  DIR/SP/G
                 (UTC) (F)  (DEG/KT/KT) (MB)
BURNS HARBOR     0600   71  200/  6/  8 1018.6S
MICHIGAN CITY    0700   73  150/  9/ 11   N/A

$$

INZ004-005-014>016-021>024-220800-
NORTH CENTRAL INDIANA

CITY           SKY/WX    TMP DP  RH WIND       PRES   REMARKS
GOSHEN         CLEAR     66  63  90 SE3       30.09S
LOGANSPORT +   CLEAR     63  61  94 CALM      30.10R
PERU/GRISSOM   CLEAR     65  65 100 CALM      30.09S
ROCHESTER +    CLEAR     64  63  94 CALM      30.09S
SOUTH BEND     CLEAR     69  62  78 CALM      30.08F
WARSAW +       CLEAR     63  63 100 CALM      30.10R FOG

$$

INZ006>009-017-018-025>027-220800-
NORTHEAST INDIANA

CITY           SKY/WX    TMP DP  RH WIND       PRES   REMARKS
ANGOLA *+      CLEAR     64  64 100 CALM      30.10F
AUBURN +       CLEAR     64  61  88 CALM      30.10F
FORT WAYNE     CLEAR     67  62  84 CALM      30.10S
HUNTINGTON +   CLEAR     64  62  93 CALM      30.09F

$$

INZ028-029-035-036-043>045-051>053-220800-
WEST CENTRAL INDIANA

CITY           SKY/WX    TMP DP  RH WIND       PRES   REMARKS
GREENCASTLE +  CLEAR     64  63  94 CALM      30.09F FOG
LAFAYETTE      CLEAR     65  64  97 CALM      30.08S FOG
TERRE HAUTE    CLEAR     64  62  93 CALM      30.08S FOG

$$

INZ030>032-037>040-046>048-054>057-064-065-220800-
CENTRAL INDIANA

CITY           SKY/WX    TMP DP  RH WIND       PRES   REMARKS
CP ATTERBURY + FOG       61  59  94 CALM      30.10F VSB 3/4
INDIANAPOLIS   CLEAR     72  63  73 CALM      30.09S
-EAGLE CREEK   CLEAR     68  64  87 CALM      30.09S
KOKOMO *+      CLEAR     63  61  94 SE3       30.10S
MARION +       CLEAR     63  61  96 CALM      30.11S
MT COMFORT *+    N/A     63 N/A N/A CALM      30.10F
SHELBYVILLE    CLEAR     65  61  87 NE3       30.09F FOG
ZIONSVILLE +   CLEAR     65  61  89 CALM      30.11S FOG

$$

INZ033-034-041-042-049-050-058-059-220800-
EAST CENTRAL INDIANA

CITY           SKY/WX    TMP DP  RH WIND       PRES   REMARKS
MUNCIE         CLEAR     65  61  87 CALM      30.10F

$$

INZ060-061-067>069-081>083-085>088-220800-
SOUTHWEST INDIANA

CITY           SKY/WX    TMP DP  RH WIND       PRES   REMARKS
EVANSVILLE     CLEAR     72  67  84 CALM      30.07F
HUNTINGBURG *+ CLEAR     68  64  88 CALM      30.07F
WASHINGTON +   FOG       64  64 100 CALM      30.07S VSB 1/4

$$

INZ062-063-066-070>080-084-089>092-220800-
SOUTH CENTRAL AND SOUTHEAST INDIANA

CITY           SKY/WX    TMP DP  RH WIND       PRES   REMARKS
BLOOMINGTON    CLEAR     63  61  93 CALM      30.09F FOG

$$




USA.gov is the U.S. government's official web portal to all federal, state and local government web resources and services.